Voltar ao catálogo

ARIANE 1 DEB

AtivoPO
NORAD 17429·DEBRIS·🇫🇷 France

Lançado Feb 22, 1986 de Guiana Space Centre

Loading…

Próximas Passagens (próximas 24 horas)

TLE

AtualizadoSource: Space-Track

Época: Sep 13, 2026, 18:17 UTC

1 17429U 86019FQ  26256.76219973  .00010523  00000-0  11717-2 0  9992
2 17429  99.0437 184.7104 0034517  11.2674 348.9303 14.86897257 85216

Acompanhe ARIANE 1 DEB em tempo real com AllMySat

Download on the App Store